Wind_Speed
52 52 53 52 53 53 54 55 58 60 62 63 65 66 66 67 67 66 67 69 70 69 69 68 67 66 64 64 64 63 65 66 60 54 50 51 52 52 51 52 48 43 42 41
56 56 56 57 58 60 62 65 67 70 69 70 70 70 70 73 75 77 76 74 72 73 73 74 72 70 67 68 68 69 70 71 67 60 58 56 55 53 53 52 50 48 47 46
58 58 60 62 64 67 69 72 71 72 74 76 79 80 78 78 78 78 78 78 76 71 69 67 73 70 70 69 69 70 74 75 73 69 62 60 58 56 56 56 57 51 49 45
58 60 63 66 69 72 73 75 78 77 82 84 87 91 92 93 92 85 70 64 53 53 56 57 65 69 64 65 68 73 75 79 75 75 70 69 65 61 62 61 55 56 45 46
61 64 68 72 75 78 81 82 83 85 87 93 94 91 86 84 72 68 64 50 44 39 42 48 56 61 65 69 67 73 71 74 74 78 75 73 74 71 67 61 58 57 52 51
63 67 71 75 79 82 85 88 91 94 94 97 93 79 68 63 46 41 35 34 33 34 30 33 36 38 45 49 61 70 71 68 67 76 72 77 81 66 63 65 62 58 56 49
68 72 76 79 82 85 87 89 92 94 93 85 66 54 48 43 36 39 29 24 32 29 32 35 32 34 34 33 34 41 55 74 68 63 64 74 77 69 69 68 62 61 56 52
72 75 78 81 83 84 88 90 84 72 65 57 51 49 45 37 32 31 31 25 31 30 30 33 34 27 22 12 16 17 27 35 53 75 71 67 73 69 70 68 61 59 56 49
74 77 79 81 84 88 88 70 50 48 49 49 50 46 37 35 32 27 25 25 25 28 23 22 28 25 13 6 11 9 9 20 30 42 76 75 69 59 58 59 65 59 56 51
77 79 80 84 86 82 64 43 44 46 51 47 38 31 30 24 26 28 24 22 20 19 18 22 22 12 12 16 15 21 12 17 25 30 38 60 70 39 51 51 54 44 37 35
79 81 85 84 78 54 46 42 45 49 51 34 27 25 21 21 23 21 17 20 16 19 16 15 12 11 13 16 13 19 11 13 15 18 21 19 35 36 33 16 25 24 25 30
82 86 84 75 52 44 46 46 43 34 30 24 19 16 17 14 16 18 15 19 23 20 16 8 7 10 15 18 8 6 8 5 13 21 17 21 17 54 36 30 23 12 11 17
87 84 72 51 47 48 46 32 26 25 16 11 8 5 12 19 15 18 21 20 17 8 8 3 9 15 15 14 8 10 3 9 11 4 8 8 7 37 40 32 33 28 25 24
83 70 53 48 47 43 28 25 18 15 10 9 8 13 15 17 17 19 18 10 5 1 3 8 11 8 11 12 10 12 11 5 4 5 2 2 8 18 27 24 32 30 30 28
67 52 47 47 41 31 21 19 15 14 14 8 10 14 14 18 21 15 7 6 4 2 3 7 7 7 7 14 12 5 6 12 9 4 3 11 16 15 16 23 21 18 24 21
50 43 44 39 31 24 19 16 17 15 12 7 11 10 15 21 22 13 9 11 3 4 6 7 4 8 12 10 6 4 4 5 10 9 12 13 15 10 13 14 15 15 15 16
40 39 37 32 24 20 19 16 13 11 9 8 7 9 13 17 12 15 13 10 6 5 5 9 12 16 11 5 5 4 3 3 7 11 7 7 9 14 15 16 10 16 17 19
34 33 30 28 25 21 18 14 12 10 9 7 5 9 9 11 10 7 5 7 6 5 7 11 13 5 3 5 16 15 11 10 13 14 9 8 17 15 14 17 18 17 16 14
28 29 32 30 28 23 19 15 13 11 10 6 6 8 10 9 3 6 9 13 11 3 4 3 10 4 5 19 16 13 13 12 14 15 14 18 19 19 18 15 14 14 14 16
24 27 27 29 28 27 24 20 17 14 11 7 3 7 10 6 3 7 8 8 9 9 3 6 8 10 14 17 17 17 17 16 16 15 14 17 17 17 19 18 16 16 15 16
20 22 25 23 24 24 25 24 19 14 8 6 1 1 3 6 4 6 5 5 6 5 4 8 7 10 10 14 12 11 10 10 11 13 15 15 14 15 17 16 17 17 17 18
18 15 18 20 23 28 30 30 27 24 20 14 7 4 4 1 1 3 4 1 1 1 3 3 7 11 15 15 12 10 8 9 12 15 15 15 16 16 17 17 18 17 16 17
17 18 19 21 24 28 31 32 33 27 22 19 12 5 6 6 5 3 4 4 4 3 2 4 7 7 13 12 11 10 11 13 13 12 14 15 15 15 16 16 17 18 19 20
18 18 21 23 26 28 31 31 31 32 26 22 16 9 4 8 9 6 3 6 7 9 10 10 7 8 10 12 13 13 13 14 15 16 16 16 17 17 18 18 19 20 21 22
19 20 22 23 24 25 26 27 27 31 26 21 20 11 4 7 11 10 7 5 8 10 11 9 10 12 12 13 14 15 17 18 19 20 20 20 21 22 22 23 23 24 26 27
17 18 20 21 21 21 22 22 23 27 23 21 21 16 11 2 7 11 12 11 10 10 12 12 12 14 16 17 18 20 21 22 23 24 25 25 26 27 28 29 30 31 33 34
17 18 20 20 20 19 20 20 23 25 22 21 20 16 10 7 3 2 7 11 12 13 14 15 16 17 18 20 22 23 25 26 28 29 30 31 32 33 33 35 36 37 38 38
Wind_Direction
310 306 303 301 300 299 299 299 301 300 301 304 303 301 299 298 295 291 289 286 284 281 278 275 273 271 268 270 268 266 265 264 262 261 256 255 256 256 255 255 257 263 264 265
310 307 303 301 301 302 301 305 307 308 309 306 304 301 298 295 292 291 289 286 284 282 279 277 273 269 266 263 262 260 260 261 261 257 255 252 252 254 256 259 258 251 255 257
308 305 303 304 305 306 307 308 310 311 309 307 304 303 300 298 296 295 295 294 291 287 282 275 274 272 267 263 261 257 257 256 256 257 254 253 251 250 251 252 252 250 249 254
308 309 309 310 310 312 313 313 311 310 307 306 305 305 305 304 306 305 306 302 293 282 276 268 260 260 263 257 252 251 251 251 252 251 248 249 248 248 251 250 250 252 252 256
312 314 315 314 313 315 316 314 312 309 309 309 307 308 310 309 309 305 303 299 294 282 275 269 267 258 255 249 245 245 245 248 248 244 247 245 244 243 244 246 247 247 248 248
315 316 318 319 319 317 316 314 313 311 309 305 307 310 311 310 308 304 303 301 300 298 286 283 283 284 282 274 256 244 242 241 243 245 241 243 242 240 243 244 244 246 247 248
320 320 321 321 319 317 315 313 310 307 307 307 314 315 310 311 305 304 305 300 295 303 292 286 293 295 291 284 277 262 255 242 238 236 237 237 239 237 240 243 241 245 245 246
323 322 322 320 318 315 312 309 311 313 312 313 320 311 309 304 301 296 300 297 294 300 304 297 297 300 298 284 292 290 273 256 249 240 233 240 237 234 238 242 239 245 249 250
323 323 322 319 316 313 309 316 312 309 307 319 313 309 310 305 297 292 293 295 293 301 307 301 294 308 325 349 341 2 296 260 260 247 240 240 237 234 240 245 239 243 246 247
324 323 321 318 314 310 315 318 313 308 306 318 311 318 310 300 303 300 306 295 302 306 291 287 293 302 298 319 314 322 283 256 255 250 255 245 237 239 235 241 235 246 254 252
325 324 322 318 312 318 317 319 312 308 309 321 316 319 309 306 302 302 305 311 321 309 306 292 274 286 293 306 337 336 330 273 242 248 275 311 235 192 200 219 240 243 242 237
326 326 322 317 322 323 320 317 312 311 316 328 320 311 315 306 299 307 316 315 315 313 310 274 288 296 330 343 322 344 306 279 237 251 258 296 225 205 221 225 213 214 227 238
330 326 321 326 327 324 322 322 316 323 340 357 346 333 317 317 313 307 317 325 318 292 266 252 321 332 341 351 342 70 87 219 240 255 315 314 200 202 213 225 224 235 220 226
330 324 329 330 330 330 333 331 341 350 18 16 324 322 336 323 316 322 332 329 298 214 282 319 314 353 357 341 343 43 181 216 180 245 312 113 184 197 201 208 213 227 241 241
328 332 333 335 337 341 343 348 359 358 359 12 352 344 334 334 339 349 25 70 63 16 293 291 5 356 344 325 342 10 67 179 157 91 80 137 149 156 178 198 217 227 230 249
333 336 337 341 345 351 357 351 344 355 16 31 6 347 341 340 352 19 60 28 64 43 340 315 31 12 349 345 351 11 23 147 168 136 112 138 153 165 192 205 208 215 211 196
341 342 345 349 355 356 352 351 4 10 10 25 15 339 5 341 5 9 21 39 49 39 9 354 3 4 21 42 312 40 79 123 213 192 193 174 179 194 188 176 174 198 183 180
348 352 0 1 359 1 3 7 11 9 14 33 22 29 10 343 13 24 40 57 49 12 358 359 359 22 318 169 94 78 76 118 122 121 139 174 165 170 173 174 177 172 174 190
354 3 10 11 14 12 12 12 8 10 8 28 51 54 59 32 13 34 58 53 28 359 36 15 169 168 136 103 93 104 115 131 135 139 153 153 157 166 171 177 188 198 204 212
2 11 7 13 19 17 14 14 7 2 3 19 53 45 52 72 320 349 20 50 43 28 282 234 224 203 137 106 103 102 104 109 109 116 137 148 162 171 176 179 188 196 203 210
357 10 12 19 23 24 24 25 22 10 1 5 113 293 48 61 325 311 334 15 52 24 70 205 239 211 168 134 118 115 118 125 139 154 153 153 160 168 174 183 193 203 212 221
340 1 359 355 6 17 18 20 21 25 25 13 358 241 225 307 315 317 289 17 7 304 345 320 182 198 174 151 149 157 161 170 173 174 171 173 179 185 194 204 212 220 228 237
320 333 344 352 1 4 7 10 13 12 12 14 6 332 235 224 253 287 250 237 232 238 239 235 274 218 190 175 181 188 193 199 202 202 202 207 214 219 222 229 239 247 256 262
301 313 324 337 344 348 353 359 1 3 3 3 2 349 268 234 231 244 256 223 233 224 225 248 261 246 228 217 218 227 232 239 241 243 244 244 245 248 252 256 259 263 269 273
292 303 314 322 329 335 343 351 354 356 355 357 1 354 328 235 230 239 247 238 230 230 232 245 246 244 241 244 250 254 256 257 259 259 261 264 265 265 267 268 269 270 272 273
301 306 310 316 323 332 338 341 342 349 352 359 0 359 3 291 220 225 238 249 260 247 239 246 247 252 257 259 260 262 263 265 267 269 270 270 270 270 271 272 273 275 276 276
309 305 306 311 316 320 327 332 336 345 353 357 360 357 3 19 65 352 233 229 237 241 247 250 256 261 265 267 269 271 272 272 272 272 272 273 274 275 276 277 278 278 277 278
Height
5687 5680 5673 5666 5661 5656 5649 5642 5637 5629 5623 5617 5610 5605 5598 5593 5589 5583 5577 5573 5569 5566 5565 5566 5566 5568 5568 5569 5567 5568 5565 5562 5574 5582 5585 5586 5588 5591 5593 5592 5598 5601 5602 5605
5673 5666 5660 5654 5647 5641 5635 5626 5618 5610 5605 5595 5588 5583 5578 5570 5564 5559 5554 5549 5545 5538 5538 5535 5538 5542 5548 5545 5547 5546 5544 5541 5550 5562 5567 5568 5571 5578 5581 5582 5583 5586 5589 5594
5661 5652 5645 5637 5630 5621 5614 5607 5599 5591 5581 5571 5563 5556 5551 5542 5535 5529 5522 5518 5514 5508 5506 5506 5502 5513 5519 5523 5526 5527 5517 5523 5527 5536 5549 5549 5553 5559 5561 5563 5565 5574 5576 5583
5648 5638 5629 5620 5611 5603 5594 5586 5577 5569 5557 5546 5535 5524 5515 5507 5497 5492 5486 5482 5479 5475 5473 5476 5474 5473 5486 5494 5500 5498 5495 5494 5504 5510 5522 5527 5533 5538 5540 5543 5556 5554 5571 5570
5633 5623 5612 5602 5593 5583 5573 5560 5552 5546 5534 5515 5506 5496 5486 5480 5474 5467 5466 5456 5456 5454 5451 5448 5445 5450 5455 5457 5469 5468 5471 5468 5474 5482 5499 5503 5507 5514 5520 5531 5537 5543 5550 5554
5620 5609 5597 5583 5570 5559 5548 5534 5525 5513 5511 5490 5483 5478 5468 5464 5454 5456 5451 5446 5442 5442 5441 5436 5436 5434 5433 5433 5435 5443 5444 5446 5452 5455 5476 5475 5473 5504 5513 5514 5520 5528 5532 5544
5604 5592 5579 5565 5551 5535 5525 5511 5500 5488 5484 5466 5465 5457 5451 5448 5446 5438 5442 5440 5434 5434 5429 5427 5427 5426 5422 5420 5420 5422 5423 5428 5432 5438 5449 5441 5464 5484 5488 5495 5507 5513 5520 5527
5589 5576 5563 5549 5534 5519 5502 5488 5473 5464 5455 5450 5451 5444 5439 5437 5436 5433 5429 5434 5427 5424 5421 5417 5416 5416 5414 5414 5413 5412 5410 5411 5411 5418 5424 5429 5444 5466 5473 5479 5494 5500 5507 5514
5574 5561 5546 5531 5515 5499 5483 5471 5458 5451 5443 5447 5436 5430 5430 5424 5423 5424 5423 5423 5422 5418 5414 5412 5408 5406 5406 5407 5406 5407 5405 5403 5402 5405 5407 5409 5432 5453 5462 5467 5471 5485 5492 5501
5560 5544 5528 5512 5495 5478 5464 5458 5449 5440 5431 5436 5426 5423 5419 5417 5415 5413 5415 5414 5414 5411 5409 5407 5405 5403 5404 5402 5402 5402 5399 5397 5394 5396 5397 5399 5420 5442 5447 5448 5469 5475 5482 5489
5543 5527 5509 5491 5474 5462 5453 5449 5438 5429 5422 5424 5419 5416 5413 5411 5410 5408 5409 5407 5406 5403 5402 5401 5399 5400 5401 5400 5400 5395 5395 5390 5392 5395 5394 5394 5410 5431 5433 5449 5458 5463 5470 5477
5526 5507 5488 5470 5459 5451 5443 5437 5428 5421 5417 5416 5413 5410 5409 5408 5405 5403 5403 5402 5400 5399 5397 5397 5397 5398 5397 5395 5393 5392 5392 5390 5390 5391 5392 5396 5397 5413 5430 5444 5452 5457 5463 5469
5505 5486 5469 5457 5449 5441 5432 5425 5420 5417 5414 5414 5410 5408 5407 5404 5402 5399 5397 5397 5396 5395 5394 5395 5396 5394 5393 5390 5389 5387 5390 5390 5390 5392 5393 5398 5399 5408 5424 5436 5445 5451 5457 5462
5486 5469 5457 5449 5440 5431 5424 5420 5416 5414 5413 5412 5410 5407 5403 5400 5397 5395 5393 5392 5392 5393 5394 5394 5393 5391 5391 5387 5386 5386 5387 5389 5391 5393 5394 5396 5404 5410 5420 5430 5439 5445 5451 5455
5470 5458 5449 5441 5432 5425 5421 5417 5415 5413 5413 5411 5408 5405 5402 5398 5396 5393 5392 5392 5393 5394 5394 5392 5391 5392 5391 5387 5386 5386 5387 5388 5392 5395 5398 5400 5405 5414 5422 5429 5435 5441 5445 5448
5462 5453 5444 5436 5429 5424 5420 5418 5415 5413 5410 5410 5408 5406 5402 5398 5394 5392 5391 5391 5392 5394 5393 5392 5392 5392 5391 5388 5387 5386 5387 5388 5392 5396 5401 5406 5410 5416 5422 5427 5431 5436 5440 5443
5458 5450 5441 5434 5429 5425 5421 5418 5415 5413 5411 5410 5409 5407 5405 5399 5397 5394 5392 5393 5394 5395 5394 5393 5393 5391 5390 5390 5391 5390 5390 5391 5392 5397 5403 5407 5411 5415 5419 5424 5428 5432 5435 5439
5456 5449 5441 5435 5428 5425 5421 5418 5415 5413 5412 5411 5410 5408 5406 5402 5399 5399 5397 5395 5395 5395 5395 5395 5394 5394 5393 5395 5392 5392 5393 5394 5395 5397 5400 5405 5410 5414 5418 5422 5426 5429 5433 5437
5456 5450 5443 5438 5433 5427 5423 5419 5416 5414 5414 5412 5411 5409 5407 5404 5402 5401 5400 5399 5399 5398 5398 5399 5400 5400 5397 5396 5398 5399 5399 5400 5400 5401 5403 5405 5410 5413 5417 5420 5424 5428 5431 5434
5456 5451 5446 5439 5433 5428 5425 5421 5418 5415 5413 5412 5411 5410 5408 5408 5405 5403 5403 5402 5401 5400 5402 5402 5403 5402 5401 5401 5401 5402 5403 5404 5404 5406 5408 5408 5410 5413 5416 5419 5423 5425 5428 5431
5458 5453 5448 5444 5439 5434 5428 5423 5420 5416 5414 5412 5411 5411 5410 5409 5409 5407 5406 5405 5403 5403 5404 5404 5404 5403 5403 5404 5405 5405 5406 5407 5408 5410 5411 5412 5413 5415 5416 5418 5421 5423 5425 5426
5457 5453 5450 5446 5440 5435 5432 5425 5420 5417 5413 5411 5410 5410 5409 5409 5408 5408 5407 5406 5406 5405 5406 5405 5405 5404 5404 5404 5405 5406 5407 5408 5408 5409 5410 5411 5412 5413 5415 5416 5418 5420 5421 5423
5454 5451 5448 5444 5441 5437 5431 5427 5423 5419 5415 5411 5408 5407 5407 5407 5407 5407 5406 5406 5406 5407 5406 5406 5406 5405 5405 5405 5406 5406 5406 5407 5408 5408 5408 5409 5410 5411 5412 5414 5415 5416 5417 5418
5450 5448 5445 5442 5438 5435 5431 5427 5423 5418 5414 5411 5407 5405 5405 5405 5405 5405 5404 5405 5405 5404 5405 5405 5405 5405 5405 5405 5406 5406 5406 5406 5406 5407 5407 5407 5408 5408 5409 5409 5410 5410 5411 5411
5446 5445 5441 5439 5436 5433 5430 5426 5422 5418 5414 5410 5407 5404 5402 5401 5402 5403 5403 5403 5403 5403 5403 5403 5403 5402 5402 5403 5403 5403 5403 5403 5403 5403 5403 5403 5403 5403 5403 5403 5403 5403 5403 5403
5442 5440 5438 5436 5434 5431 5428 5425 5422 5419 5414 5410 5406 5403 5401 5399 5399 5400 5400 5401 5401 5401 5401 5401 5400 5400 5400 5399 5399 5398 5398 5398 5397 5397 5396 5396 5396 5396 5395 5395 5395 5394 5394 5394
5437 5435 5434 5432 5430 5428 5426 5424 5420 5417 5413 5409 5406 5403 5401 5400 5398 5398 5398 5398 5398 5398 5398 5397 5397 5396 5395 5394 5393 5393 5392 5391 5390 5389 5388 5387 5387 5386 5386 5384 5383 5382 5382 5381